Location: Duncanville
(32.6518°N, 96.9083°W)
Time: 10:12:02
(UTC+00:00)

Cosmos 2084 - Pass Details

Date: 11 February 2026
Orbit: 538 x 562 km, 62.8° (Epoch: 8 March)

Event Time Altitude Azimuth Distance (km) Brightness Sun altitude
Exits shadow 12:15:10 13° 320° (NW) 1,647 5.3 -13.0°
Maximum altitude 12:18:45 59° 242° (WSW) 624 3.3 -12.2°
Drops below altitude 10° 12:22:42 10° 162° (SSE) 1,787 6.3 -11.4°
Sets 12:24:54 0° 159° (SSE) 2,672 7.3 -11.0°
